When you browse on this site, cookies collect data to enhance your experience and personalize the content and advertising you see.
Visit our Privacy Policy to learn more. By continuing to use the site, you agree to this use of cookies and data.
  • En España
  • Lista de países
  • Para 7 días
  • Temperatura del agua
  • El tiempo en el mapa
  • Informadores
  • user-avatar
    Iniciar sesión

    Tiempo cada hora Kokchetaw

    Hoy, 22 Agosto, Jueves

    Tiempo Temperatura Precipitaciones Viento Presión Humedad
    00:00 +11°C° 0 mm 3 mps 739 mmHg 85%
    01:00 +10°C° 0 mm 3 mps 739 mmHg 86%
    02:00 +10°C° 0 mm 3 mps 739 mmHg 86%
    03:00 +9°C° 0 mm 3 mps 739 mmHg 88%
    04:00 +9°C° 0 mm 3 mps 738 mmHg 89%
    05:00 +9°C° 0 mm 3 mps 738 mmHg 91%
    06:00 +10°C° 0 mm 3 mps 739 mmHg 89%
    07:00 +11°C° 0 mm 3 mps 739 mmHg 87%
    08:00 +12°C° 0 mm 3 mps 739 mmHg 85%
    09:00 +13°C° 0.1 mm 3 mps 739 mmHg 84%
    10:00 +14°C° 0.1 mm 4 mps 739 mmHg 83%
    11:00 +15°C° 0.1 mm 4 mps 739 mmHg 83%
    12:00 +16°C° 0.1 mm 5 mps 739 mmHg 78%
    13:00 +17°C° 0.1 mm 5 mps 739 mmHg 74%
    14:00 +19°C° 0.1 mm 6 mps 739 mmHg 70%
    15:00 +19°C° 0 mm 6 mps 739 mmHg 68%
    16:00 +19°C° 0 mm 6 mps 740 mmHg 67%
    17:00 +19°C° 0 mm 5 mps 740 mmHg 66%
    18:00 +18°C° 0 mm 4 mps 740 mmHg 72%
    19:00 +16°C° 0 mm 3 mps 740 mmHg 78%
    20:00 +14°C° 0 mm 2 mps 740 mmHg 85%
    21:00 +14°C° 0 mm 2 mps 740 mmHg 85%
    22:00 +14°C° 0 mm 2 mps 741 mmHg 85%
    23:00 +14°C° 0 mm 2 mps 741 mmHg 86%

    Mañana, 23 Agosto, Viernes

    Tiempo Temperatura Precipitaciones Viento Presión Humedad
    00:00 +13°C° 0 mm 2 mps 741 mmHg 87%
    01:00 +13°C° 0 mm 2 mps 741 mmHg 88%
    02:00 +13°C° 0 mm 2 mps 741 mmHg 89%
    03:00 +13°C° 0 mm 2 mps 741 mmHg 90%
    04:00 +13°C° 0 mm 2 mps 742 mmHg 90%
    05:00 +13°C° 0 mm 2 mps 742 mmHg 91%
    06:00 +14°C° 0 mm 2 mps 742 mmHg 86%
    07:00 +16°C° 0 mm 2 mps 743 mmHg 80%
    08:00 +17°C° 0 mm 2 mps 743 mmHg 75%
    09:00 +19°C° 0 mm 2 mps 743 mmHg 68%
    10:00 +21°C° 0 mm 3 mps 743 mmHg 61%
    11:00 +22°C° 0 mm 3 mps 744 mmHg 55%
    12:00 +24°C° 0.1 mm 3 mps 743 mmHg 52%
    13:00 +24°C° 0.1 mm 3 mps 743 mmHg 49%
    14:00 +25°C° 0.1 mm 3 mps 743 mmHg 46%
    15:00 +25°C° 0 mm 3 mps 743 mmHg 48%
    16:00 +24°C° 0 mm 3 mps 743 mmHg 50%
    17:00 +24°C° 0 mm 3 mps 743 mmHg 53%
    18:00 +21°C° 0 mm 3 mps 743 mmHg 58%
    19:00 +20°C° 0 mm 2 mps 743 mmHg 63%
    20:00 +18°C° 0 mm 2 mps 742 mmHg 69%
    21:00 +18°C° 0 mm 3 mps 742 mmHg 71%
    22:00 +17°C° 0 mm 3 mps 742 mmHg 73%
    23:00 +16°C° 0 mm 3 mps 742 mmHg 74%

    Pasado mañana, 24 Agosto, Sábado

    Tiempo Temperatura Precipitaciones Viento Presión Humedad
    00:00 +16°C° 0 mm 3 mps 742 mmHg 75%
    01:00 +15°C° 0 mm 4 mps 742 mmHg 75%
    02:00 +15°C° 0 mm 4 mps 741 mmHg 76%
    03:00 +15°C° 0 mm 4 mps 741 mmHg 74%
    04:00 +14°C° 0 mm 4 mps 741 mmHg 73%
    05:00 +14°C° 0 mm 5 mps 742 mmHg 71%
    06:00 +16°C° 0 mm 5 mps 742 mmHg 68%
    07:00 +17°C° 0 mm 6 mps 741 mmHg 65%
    08:00 +19°C° 0 mm 6 mps 741 mmHg 61%
    09:00 +20°C° 0 mm 6 mps 742 mmHg 61%
    10:00 +21°C° 0 mm 6 mps 742 mmHg 61%
    11:00 +22°C° 0 mm 6 mps 742 mmHg 61%
    12:00 +22°C° 0.2 mm 5 mps 742 mmHg 67%
    13:00 +21°C° 0.2 mm 5 mps 741 mmHg 72%
    14:00 +21°C° 0.2 mm 4 mps 741 mmHg 77%
    15:00 +21°C° 0.1 mm 4 mps 741 mmHg 70%
    16:00 +22°C° 0.1 mm 4 mps 741 mmHg 62%
    17:00 +23°C° 0.1 mm 4 mps 741 mmHg 55%
    18:00 +21°C° 0 mm 4 mps 741 mmHg 60%
    19:00 +19°C° 0 mm 3 mps 741 mmHg 66%
    20:00 +17°C° 0 mm 2 mps 741 mmHg 72%
    21:00 +17°C° 0 mm 2 mps 742 mmHg 73%
    22:00 +16°C° 0 mm 2 mps 742 mmHg 75%
    23:00 +16°C° 0 mm 2 mps 742 mmHg 77%

    25 Agosto, Domingo

    Tiempo Temperatura Precipitaciones Viento Presión Humedad
    00:00 +15°C° 0 mm 2 mps 742 mmHg 80%
    01:00 +14°C° 0 mm 2 mps 742 mmHg 83%
    02:00 +13°C° 0 mm 2 mps 742 mmHg 85%
    03:00 +13°C° 0 mm 2 mps 742 mmHg 87%
    04:00 +13°C° 0 mm 2 mps 742 mmHg 88%
    05:00 +12°C° 0 mm 2 mps 742 mmHg 90%
    06:00 +13°C° 0 mm 2 mps 743 mmHg 85%
    07:00 +15°C° 0 mm 2 mps 743 mmHg 79%
    08:00 +16°C° 0 mm 2 mps 743 mmHg 74%
    09:00 +18°C° 0 mm 2 mps 743 mmHg 68%
    10:00 +19°C° 0 mm 3 mps 743 mmHg 62%
    11:00 +20°C° 0 mm 3 mps 743 mmHg 55%
    12:00 +21°C° 0 mm 3 mps 743 mmHg 52%
    13:00 +22°C° 0 mm 3 mps 742 mmHg 49%
    14:00 +24°C° 0 mm 3 mps 742 mmHg 45%
    15:00 +23°C° 0 mm 2 mps 742 mmHg 45%
    16:00 +23°C° 0 mm 2 mps 742 mmHg 45%
    17:00 +23°C° 0 mm 2 mps 742 mmHg 45%
    18:00 +22°C° 0 mm 1 mps 742 mmHg 50%
    19:00 +20°C° 0 mm 1 mps 742 mmHg 56%
    20:00 +16°C° 0 mm 0 mps 742 mmHg 62%
    21:00 +16°C° 0 mm 0 mps 741 mmHg 63%
    22:00 +16°C° 0 mm 1 mps 741 mmHg 65%
    23:00 +16°C° 0 mm 1 mps 741 mmHg 67%

    26 Agosto, Lunes

    Tiempo Temperatura Precipitaciones Viento Presión Humedad
    00:00 +15°C° 0 mm 2 mps 741 mmHg 68%
    01:00 +15°C° 0 mm 2 mps 741 mmHg 69%
    02:00 +15°C° 0 mm 2 mps 740 mmHg 70%
    03:00 +14°C° 0 mm 2 mps 740 mmHg 70%
    04:00 +13°C° 0 mm 3 mps 740 mmHg 70%
    05:00 +13°C° 0 mm 3 mps 740 mmHg 70%
    06:00 +14°C° 0 mm 3 mps 740 mmHg 66%
    07:00 +17°C° 0 mm 3 mps 739 mmHg 62%
    08:00 +18°C° 0 mm 3 mps 739 mmHg 58%
    09:00 +20°C° 0 mm 3 mps 739 mmHg 52%
    10:00 +22°C° 0 mm 3 mps 739 mmHg 46%
    11:00 +25°C° 0 mm 3 mps 739 mmHg 39%
    12:00 +25°C° 0 mm 3 mps 738 mmHg 38%
    13:00 +26°C° 0 mm 4 mps 738 mmHg 36%
    14:00 +27°C° 0 mm 4 mps 737 mmHg 34%
    15:00 +27°C° 0 mm 4 mps 737 mmHg 36%
    16:00 +27°C° 0 mm 4 mps 736 mmHg 37%
    17:00 +27°C° 0 mm 4 mps 736 mmHg 39%
    18:00 +25°C° 0 mm 4 mps 735 mmHg 43%
    19:00 +22°C° 0 mm 4 mps 735 mmHg 47%
    20:00 +21°C° 0 mm 4 mps 734 mmHg 51%
    21:00 +20°C° 0 mm 4 mps 733 mmHg 50%
    22:00 +20°C° 0 mm 3 mps 733 mmHg 48%
    23:00 +20°C° 0 mm 3 mps 732 mmHg 46%

    27 Agosto, Martes

    Tiempo Temperatura Precipitaciones Viento Presión Humedad
    00:00 +20°C° 0 mm 4 mps 731 mmHg 45%
    01:00 +20°C° 0 mm 5 mps 731 mmHg 44%
    02:00 +20°C° 0 mm 6 mps 730 mmHg 44%
    03:00 +19°C° 0 mm 6 mps 729 mmHg 51%
    04:00 +17°C° 0 mm 5 mps 729 mmHg 58%
    05:00 +16°C° 0 mm 5 mps 728 mmHg 65%
    06:00 +16°C° 0.1 mm 5 mps 728 mmHg 70%
    07:00 +15°C° 0.1 mm 5 mps 729 mmHg 76%
    08:00 +14°C° 0.1 mm 5 mps 729 mmHg 81%
    09:00 +14°C° 0.1 mm 6 mps 729 mmHg 80%
    10:00 +14°C° 0.1 mm 6 mps 730 mmHg 79%
    11:00 +14°C° 0.1 mm 7 mps 730 mmHg 77%
    12:00 +14°C° 0 mm 6 mps 731 mmHg 76%
    13:00 +13°C° 0 mm 6 mps 732 mmHg 75%
    14:00 +13°C° 0 mm 6 mps 732 mmHg 74%
    15:00 +11°C° 0.1 mm 6 mps 732 mmHg 74%
    16:00 +11°C° 0.1 mm 6 mps 733 mmHg 74%
    17:00 +10°C° 0.1 mm 6 mps 733 mmHg 74%
    18:00 +9°C° 0 mm 6 mps 733 mmHg 74%
    19:00 +9°C° 0 mm 6 mps 734 mmHg 74%
    20:00 +8°C° 0 mm 6 mps 734 mmHg 74%
    21:00 +8°C° 0 mm 6 mps 734 mmHg 77%
    22:00 +7°C° 0 mm 6 mps 735 mmHg 80%
    23:00 +5°C° 0 mm 6 mps 735 mmHg 83%
    Mostrar más